Change the Weather History Date:

Wednesday, November 6, 2013

  Actual Average (KBFD) Record (KBFD)
Temperature  
Mean Temperature 50 °F 41 °F  
Max Temperature 62 °F 49 °F 67 °F (2005)
Min Temperature 37 °F 32 °F 15 °F (1967)
Degree Days  
Heating Degree Days 16 20  
Month to date heating degree days 115  
Since 1 July heating degree days 1108  
Cooling Degree Days 0 0  
Month to date cooling degree days 0  
Year to date cooling degree days 193  
Moisture  
Dew Point 42 °F    
Average Humidity 76    
Maximum Humidity 100    
Minimum Humidity 52    
Precipitation  
Precipitation 0.00 in 0.12 in 0.60 in (1968)
Month to date precipitation 0.70  
Year to date precipitation 38.00  
Sea Level Pressure  
Sea Level Pressure 30.09 in    
Wind  
Wind Speed 9 mph (SSW)    
Max Wind Speed 20 mph    
Max Gust Speed 26 mph    
Visibility 9 miles    
Events Rain    
T = Trace of Precipitation, MM = Missing Value Source: NWS Daily Summary

Daily Weather History Graph

Daily Weather History Graph

Search for Another Location

Airport or City:

Trip Planner

Search our weather history database for the weather conditions in past years. The results will help you decide how hot, cold, wet, or windy it might be!

Date:

Astronomy

Nov. 06, 2013 Rise Set
Actual Time 6:53 AM EST 5:00 PM EST
Civil Twilight 6:23 AM EST 5:30 PM EST
Nautical Twilight 5:50 AM EST 6:03 PM EST
Astronomical Twilight 5:17 AM EST 6:36 PM EST
Moon 10:07 AM EST 8:01 PM EST
Length of Visible Light 11h 06m
Length of Day
10h 07m
Waxing Crescent, 13% of the Moon is Illuminated
Nov 6
Waxing Crescent
Nov 10
First Quarter
Nov 17
Full
Nov 25
Last Quarter
Dec 2
New

Hourly Weather History & Observations

Time (EST) Temp. Windchill Dew Point Humidity Pressure Visibility Wind Dir Wind Speed Gust Speed Precip Events Conditions
12:15 AM 41.0 °F 36.4 °F 32.0 °F 70% 30.34 in 10.0 mi South 6.9 mph - N/A   Clear
12:35 AM 41.0 °F 37.1 °F 32.0 °F 70% 30.32 in 10.0 mi South 5.8 mph - N/A   Clear
12:55 AM 41.0 °F 35.2 °F 32.0 °F 70% 30.32 in 10.0 mi SSW 9.2 mph - N/A   Clear
1:35 AM 41.0 °F 35.2 °F 33.8 °F 76% 30.29 in 10.0 mi South 9.2 mph - N/A   Clear
1:55 AM 41.0 °F 35.8 °F 33.8 °F 76% 30.29 in 10.0 mi SSW 8.1 mph - N/A   Scattered Clouds
2:15 AM 41.0 °F 35.2 °F 33.8 °F 76% 30.28 in 10.0 mi South 9.2 mph - N/A   Clear
2:35 AM 41.0 °F 34.3 °F 33.8 °F 76% 30.28 in 10.0 mi SSW 11.5 mph 18.4 mph N/A   Clear
2:55 AM 39.2 °F 33.6 °F 33.8 °F 81% 30.27 in 10.0 mi SSW 8.1 mph - N/A   Clear
3:15 AM 39.2 °F 33.6 °F 33.8 °F 81% 30.26 in 10.0 mi SSW 8.1 mph - N/A   Clear
3:35 AM 37.4 °F 30.8 °F 33.8 °F 87% 30.25 in 10.0 mi South 9.2 mph - N/A   Scattered Clouds
3:55 AM 39.2 °F 33.0 °F 35.6 °F 87% 30.25 in 10.0 mi South 9.2 mph - N/A   Scattered Clouds
4:15 AM 39.2 °F 32.0 °F 35.6 °F 87% 30.24 in 10.0 mi South 11.5 mph - N/A   Mostly Cloudy
4:35 AM 39.2 °F 32.5 °F 35.6 °F 87% 30.24 in 10.0 mi SSW 10.4 mph - N/A   Mostly Cloudy
4:55 AM 37.4 °F 30.8 °F 35.6 °F 93% 30.25 in 10.0 mi SSW 9.2 mph - N/A   Mostly Cloudy
5:15 AM 39.2 °F 33.6 °F 35.6 °F 87% 30.25 in 10.0 mi SSW 8.1 mph - N/A   Overcast
5:35 AM 39.2 °F 33.0 °F 35.6 °F 87% 30.24 in 10.0 mi South 9.2 mph - N/A   Overcast
5:55 AM 39.2 °F 33.6 °F 35.6 °F 87% 30.23 in 10.0 mi South 8.1 mph - N/A   Overcast
6:15 AM 39.2 °F 34.2 °F 35.6 °F 87% 30.22 in 10.0 mi South 6.9 mph - N/A   Overcast
6:35 AM 39.2 °F 35.0 °F 35.6 °F 87% 30.21 in 10.0 mi SSW 5.8 mph - N/A   Overcast
6:55 AM 39.2 °F 34.2 °F 35.6 °F 87% 30.21 in 10.0 mi South 6.9 mph - N/A   Overcast
7:15 AM 39.2 °F 32.5 °F 35.6 °F 87% 30.20 in 10.0 mi South 10.4 mph - N/A   Scattered Clouds
7:35 AM 39.2 °F 32.5 °F 37.4 °F 93% 30.20 in 10.0 mi SSW 10.4 mph - N/A   Clear
7:55 AM 41.0 °F 34.3 °F 37.4 °F 87% 30.20 in 10.0 mi South 11.5 mph 19.6 mph N/A   Clear
8:15 AM 41.0 °F 35.2 °F 37.4 °F 87% 30.20 in 10.0 mi SSW 9.2 mph 18.4 mph N/A   Clear
8:35 AM 41.0 °F 36.4 °F 37.4 °F 87% 30.19 in 10.0 mi South 6.9 mph - N/A   Clear
8:55 AM 42.8 °F 38.6 °F 37.4 °F 81% 30.18 in 10.0 mi SSW 6.9 mph - N/A   Clear
9:15 AM 42.8 °F 38.0 °F 37.4 °F 81% 30.18 in 10.0 mi South 8.1 mph - N/A   Clear
9:35 AM 46.4 °F 41.1 °F 39.2 °F 76% 30.17 in 10.0 mi SSW 11.5 mph 16.1 mph N/A   Clear
9:55 AM 48.2 °F - 39.2 °F 71% 30.15 in 10.0 mi SSW 11.5 mph 18.4 mph N/A   Clear
10:15 AM 50.0 °F - 41.0 °F 71% 30.15 in 10.0 mi SSW 12.7 mph 17.3 mph N/A   Clear
10:35 AM 50.0 °F - 41.0 °F 71% 30.14 in 10.0 mi SSW 10.4 mph 17.3 mph N/A   Clear
10:55 AM 50.0 °F - 41.0 °F 71% 30.13 in 10.0 mi SSW 10.4 mph 19.6 mph N/A   Clear
11:15 AM 50.0 °F - 41.0 °F 71% 30.14 in 10.0 mi SSW 10.4 mph 16.1 mph N/A   Clear
11:35 AM 51.8 °F - 42.8 °F 71% 30.12 in 10.0 mi South 10.4 mph 21.9 mph N/A   Clear
11:55 AM 53.6 °F - 42.8 °F 67% 30.11 in 10.0 mi South 12.7 mph - N/A   Clear
12:15 PM 55.4 °F - 42.8 °F 63% 30.11 in 10.0 mi South 9.2 mph 16.1 mph N/A   Scattered Clouds
12:35 PM 57.2 °F - 44.6 °F 63% 30.09 in 10.0 mi South 11.5 mph 18.4 mph N/A   Scattered Clouds
12:55 PM 59.0 °F - 44.6 °F 59% 30.08 in 10.0 mi SSW 10.4 mph - N/A   Scattered Clouds
1:15 PM 60.8 °F - 44.6 °F 55% 30.07 in 10.0 mi SW 9.2 mph - N/A   Scattered Clouds
1:35 PM 62.6 °F - 44.6 °F 52% 30.05 in 10.0 mi SSW 8.1 mph 24.2 mph N/A   Scattered Clouds
1:55 PM 60.8 °F - 44.6 °F 55% 30.04 in 10.0 mi SSW 19.6 mph 26.5 mph N/A   Mostly Cloudy
2:15 PM 60.8 °F - 44.6 °F 55% 30.03 in 10.0 mi SW 13.8 mph 24.2 mph N/A   Overcast
2:35 PM 60.8 °F - 44.6 °F 55% 30.03 in 10.0 mi WSW 9.2 mph 18.4 mph N/A   Overcast
2:55 PM 60.8 °F - 44.6 °F 55% 30.02 in 10.0 mi SSW 9.2 mph - N/A   Overcast
3:15 PM 60.8 °F - 44.6 °F 55% 30.01 in 10.0 mi SSW 10.4 mph 20.7 mph N/A   Overcast
3:35 PM 59.0 °F - 44.6 °F 59% 29.99 in 10.0 mi SSW 10.4 mph - N/A   Overcast
3:55 PM 59.0 °F - 44.6 °F 59% 29.98 in 10.0 mi SSW 9.2 mph 16.1 mph N/A   Overcast
4:15 PM 59.0 °F - 44.6 °F 59% 29.97 in 10.0 mi SSW 8.1 mph - N/A   Overcast
4:35 PM 59.0 °F - 44.6 °F 59% 29.96 in 10.0 mi South 9.2 mph - N/A   Mostly Cloudy
4:55 PM 59.0 °F - 44.6 °F 59% 29.95 in 10.0 mi SSW 8.1 mph 16.1 mph N/A   Mostly Cloudy
5:15 PM 59.0 °F - 44.6 °F 59% 29.95 in 10.0 mi SSW 10.4 mph 17.3 mph N/A   Overcast
5:35 PM 59.0 °F - 44.6 °F 59% 29.94 in 10.0 mi South 11.5 mph 18.4 mph N/A   Overcast
5:55 PM 59.0 °F - 44.6 °F 59% 29.94 in 10.0 mi SSW 12.7 mph 19.6 mph N/A   Mostly Cloudy
6:15 PM 57.2 °F - 44.6 °F 63% 29.94 in 10.0 mi SSW 11.5 mph - N/A   Mostly Cloudy
6:35 PM 57.2 °F - 44.6 °F 63% 29.93 in 10.0 mi SSW 10.4 mph 20.7 mph N/A   Mostly Cloudy
6:55 PM 57.2 °F - 44.6 °F 63% 29.94 in 10.0 mi SSW 12.7 mph 19.6 mph N/A Rain Light Rain
7:15 PM 55.4 °F - 44.6 °F 67% 29.92 in 10.0 mi SSW 10.4 mph 18.4 mph N/A   Overcast
7:35 PM 55.4 °F - 46.4 °F 72% 29.93 in 10.0 mi SSW 11.5 mph 17.3 mph N/A Rain Rain
7:55 PM 53.6 °F - 46.4 °F 77% 29.92 in 10.0 mi SSW 9.2 mph - N/A Rain Light Rain
8:15 PM 53.6 °F - 48.2 °F 82% 29.92 in 10.0 mi SW 9.2 mph - N/A Rain Rain
8:35 PM 53.6 °F - 50.0 °F 88% 29.91 in 10.0 mi SSW 9.2 mph - N/A Rain Light Rain
8:55 PM 53.6 °F - 50.0 °F 88% 29.91 in 7.0 mi SW 15.0 mph 19.6 mph N/A   Light Drizzle
9:15 PM 53.6 °F - 50.0 °F 88% 29.90 in 10.0 mi SSW 13.8 mph 21.9 mph N/A Rain Rain
9:35 PM 51.8 °F - 50.0 °F 94% 29.90 in 5.0 mi SW 11.5 mph 24.2 mph N/A Rain Rain
9:55 PM 51.8 °F - 51.8 °F 100% 29.89 in 7.0 mi SW 9.2 mph 18.4 mph N/A Rain Light Rain
10:15 PM 51.8 °F - 51.8 °F 100% 29.90 in 5.0 mi SW 6.9 mph 18.4 mph N/A Rain Heavy Rain
10:35 PM 51.8 °F - 51.8 °F 100% 29.88 in 7.0 mi SSW 9.2 mph - N/A Rain Light Rain
10:55 PM 51.8 °F - 51.8 °F 100% 29.88 in 7.0 mi SSW 8.1 mph - N/A Rain Light Rain
11:15 PM 51.8 °F - 51.8 °F 100% 29.88 in 7.0 mi SW 9.2 mph - N/A Rain Light Rain
11:35 PM 51.8 °F - 51.8 °F 100% 29.87 in 1.5 mi SSW 8.1 mph - N/A   Drizzle
11:55 PM 51.8 °F - 51.8 °F 100% 29.86 in 3.0 mi SSW 6.9 mph - N/A Rain Rain